Regional Weather Roundup
Issued by NWS Sioux Falls, SD

Home | Current Version | Previous Version | Text Only | Print | Product List | Glossary Off
Versions: 1 2 3 4 5 6 7 8 9 10 11 12 13 14 15 16 17 18 19 20 21 22 23 24 25 26 27 28 29 30 31 32 33 34 35 36 37 38 39 40 41 42 43 44 45 46 47 48 49 50

000
ASUS43 KFSD 260810
RWRFSD

WEATHER ROUNDUP FOR SE SOUTH DAKOTA/SW MINNESOTA/NW IOWA
NATIONAL WEATHER SERVICE SIOUX FALLS SD
200 AM CST FRI DEC 26 2014

NOTE: "FAIR" INDICATES FEW OR NO CLOUDS BELOW 12,000 FEET WITH NO
SIGNIFICANT WEATHER AND OR OBSTRUCTIONS TO VISIBILITY.


SDZ038>040-050-052>070-260900-
SOUTHEAST SOUTH DAKOTA

CITY           SKY/WX    TMP DP  RH WIND       PRES   REMARKS
CHAMBERLAIN    CLOUDY    25  22  87 N14       29.96S WCI  13
HURON          LGT SNOW  26  23  88 N14       29.96R FOG     WCI  14
MADISON        CLOUDY    27  27 100 N15       29.88R WCI  15
MITCHELL       CLOUDY    27  24  89 N16       29.95R WCI  15
SIOUX FALLS    CLOUDY    29  26  89 N12       29.88R WCI  19
WINNER         CLOUDY    26  22  84 N16       29.96R WCI  14
YANKTON        CLOUDY    28  25  86 NW15      29.90R WCI  17
$$

MNZ071-072-080-081-089-090-097-098-260900-
SOUTHWEST MINNESOTA

CITY           SKY/WX    TMP DP  RH WIND       PRES   REMARKS
FAIRMONT       CLOUDY    32  28  86 N13       29.81R WCI  22
JACKSON        CLOUDY    32  32 100 N13       29.82S WCI  22
LUVERNE        CLOUDY    32  28  86 N10       29.86R WCI  24
MARSHALL       CLOUDY    28  25  86 N16       29.89R WCI  17
MONTEVIDEO     CLOUDY    27  27 100 N12       29.92S WCI  16
PIPESTONE      MIX PCPN  27  27 100 NE14G24   29.86R WCI  15
REDWOOD FALLS  CLOUDY    31  29  92 N7        29.88R WCI  24
TRACY          CLOUDY    30  29  97 N13       29.87S WCI  20
WINDOM         CLOUDY    30  30 100 N13       29.84R FOG     WCI  20
WORTHINGTON    CLOUDY    30 -17  12 N15       29.84R WCI  19
$$

IAZ001>003-012>014-020>022-031-032-NEZ013-014-SDZ071-260900-
NORTHWEST IOWA

CITY           SKY/WX    TMP DP  RH WIND       PRES   REMARKS
CHEROKEE       CLOUDY    32  32  99 N10G18    29.81R WCI  24
DENISON        CLEAR     28  28 100 NE3       29.75R
ESTHERVILLE    CLOUDY    31  30  96 N13       29.80R FOG     WCI  21
LE MARS        CLOUDY    34  32  93 N9G17     29.85R WCI  26
ORANGE CITY    CLOUDY    34  30  86 N8G17     29.83R FOG     WCI  27
SHELDON        CLOUDY    32  32 100 N14       29.82R FOG     WCI  22
SIOUX CITY     CLOUDY    35  31  85 N17       29.84R WCI  25
SPENCER        CLOUDY    33  30  88 N14       29.81R WCI  23
STORM LAKE     MOCLDY    30  30 100 N13       29.78S WCI  20
$$

ABBREVIATIONS USED IN REMARKS
   TC - TEMPERATURE IN CELSIUS
  WCI - WIND CHILL INDEX
   HX - HEAT INDEX
  VSB - VISIBILITY




USA.gov is the U.S. government's official web portal to all federal, state and local government web resources and services.